Location: Bas-Clignon
(44.2000°N, 6.6333°E)
Time: 07:17:50
(UTC+00:00)

BREEZE-M DEB (TANK) - Pass Details

Date: 03 February 2023
Orbit: 427 x 13836 km, 45.9° (Epoch: 26 March)

Event Time Altitude Azimuth Distance (km) Brightness Sun altitude
Rises 17:11:48 0° 268° (W) 2,384 7.4 -5.2°
Reaches altitude 10° 17:13:27 10° 271° (W) 1,566 6.1 -5.5°
Maximum altitude 17:16:23 71° 357° (N) 613 2.5 -6.0°
Drops below altitude 10° 17:22:16 10° 82° (E) 3,103 5.5 -7.0°
Enters shadow 17:23:08 - 82° (E) 3,510 5.7 -7.2°
